www.pogodaiklimat.ru

Погода и климат >> Архив погоды >> Индонезия >> Роти


ПОГОДА на Роти

  • Прогноз погоды на Роти
  • Монитор погоды на Роти

АРХИВ ПОГОДЫ на Роти

Время (UTC), дата Ветер
(напр.,м/с)
 
Видим.   Явления Облачность Т
(С)
Тd
(С)
f
(%)
Тe
(С)
Тes
(С)
Комфортность P
(гПа)
Po
(гПа)
Тmin
(С)
Tmax
(С)
R
(мм)
R24
(мм)
S
(см)
03 9.06 ЮВ 6 10 км 6/5 600 м
[Cu hum Ci fib]
+28.0 +22.4 72 +37 +40 очень
душно
1018.6 997.5
06 9.06 ЮВ 6 10 км 5/5 540 м
[Cu hum Ci fib]
+28.6 +23.4 73 +39 +41 очень
душно
1016.7 995.7
09 9.06 ЮВ 4 10 км 4/4 600 м
[Cu hum Ci fib]
+26.4 +22.8 81 +35 +35 очень
душно
1016.8 995.7
12 9.06 С 26 10 км 1/1 600 м
[Cu hum Ci fib]
+25.0 +22.7 87 +33 +33 очень
душно
1018.5 995.7 +29.2
15 9.06 ЮВ 4 10 км 3/1 600 м
[Cu hum Ci fib]
+24.8 +22.2 85 +32 +32 очень
душно
1018.2 997.1
18 9.06 ЮВ 4 10 км 3/1 600 м
[Cu hum Ci fib]
+25.0 +22.3 85 +33 +33 очень
душно
1016.2 995.2
21 9.06 ЮВ 4 10 км 5/4 600 м
[Cu hum Ci fib]
+25.0 +22.7 87 +33 +33 очень
душно
1016.0 995.0
00 10.06 ЮВ 3 10 км 4/4 600 м
[Cu hum Ci fib]
+26.6 +22.7 79 +35 +37 очень
душно
1017.0 996.0 +22.0
03 10.06 ЮВ 7 10 км 5/4 600 м
[Cu hum Ci fib]
+29.2 +20.8 61 +36 +39 очень
душно
1016.2 995.2
06 10.06 В 7 10 км 5/4 600 м
[Cu hum Ci fib]
+28.2 +21.4 67 +36 +38 очень
душно
1014.4 993.4
09 10.06 ЮВ 5 10 км 4/3 600 м
[Cu hum Ci fib]
+26.6 +22.4 78 +35 +35 очень
душно
1014.7 993.7
12 10.06 В 4 10 км 3/1 600 м
[Cu hum Ci fib]
+25.0 +23.0 89 +33 +33 очень
душно
1017.1 996.1 +29.6
15 10.06 ЮВ 5 10 км 3/1 600 м
[Cu hum Ci fib]
+25.0 +22.7 87 +33 +33 очень
душно
1017.4 996.3
18 10.06 В 4 10 км 3/1 600 м
[Cu hum Ci fib]
+24.4 +22.7 90 +32 +32 очень
душно
1017.0 995.9
21 10.06 Ю 2 10 км 3/1 600 м
[Cu hum Ci fib]
+23.2 +22.3 95 +32 +32 очень
душно
1017.8 996.7
00 11.06 ЮВ 3 10 км 6/5 600 м
[Cu hum Ci fib]
+26.0 +23.3 85 +35 +36 очень
душно
1019.0 997.9 +22.8
03 11.06 ЮВ 5 10 км 8/6 600 м
[Cu hum Ci fib]
+28.2 +22.9 73 +38 +40 очень
душно
1019.1 998.0
06 11.06 ЮВ 6 10 км 8/6 540 м
[Cu med, cong Ci fib]
+28.2 +23.2 74 +38 +39 очень
душно
1016.8 995.8
09 11.06 ЮВ 5 10 км 6/5 600 м
[Cu hum Ci fib]
+26.4 +23.1 82 +35 +35 очень
душно
1017.4 996.4
12 11.06 ЮВ 4 10 км 4/3 600 м
[Cu hum Ci fib]
+25.2 +23.2 89 +34 +34 очень
душно
1018.6 997.5 +30.0
15 11.06 ЮВ 3 10 км 4/3 600 м
[Cu hum Ci fib]
+25.0 +23.1 89 +33 +33 очень
душно
1018.8 997.7
18 11.06 ЮВ 3 10 км 4/3 600 м
[Cu hum Ci fib]
+24.8 +22.8 89 +33 +33 очень
душно
1017.7 996.7
21 11.06 ЮВ 3 10 км 4/3 600 м
[Cu hum Ci fib]
+24.2 +22.5 90 +32 +32 очень
душно
1018.2 997.2
00 12.06 ЮВ 6 10 км 5/5 540 м
[Cu med, cong Ci fib]
+26.4 +24.0 87 +37 +37 очень
душно
1019.6 998.5 +24.2
03 12.06 ЮВ 7 10 км 9/8 540 м
[Cu med, cong As trans Ci fib]
+27.6 +22.9 76 +37 +38 очень
душно
1019.0 997.9
06 12.06 ЮВ 6 10 км 9/8 540 м
[Cu med, cong Ac As Ci fib]
+27.4 +24.2 83 +38 +39 очень
душно
1016.6 995.6
09 12.06 ЮВ 5 10 км 9/5 540 м
[Cu med, cong Ac As Ci fib]
+26.4 +23.1 82 +35 +35 очень
душно
1016.5 995.5
12 12.06 ЮВ 5 10 км 9/6 540 м
[Cu med, cong As trans Ci fib]
+25.8 +23.7 88 +35 +35 очень
душно
1018.0 997.0 +29.8
15 12.06 В 3 10 км слаб. дождь 9/5 540 м
[Cu med, cong Ac As Ci fib]
+25.8 +23.1 85 +34 +34 очень
душно
1018.4 997.3
18 12.06 ЮВ 4 10 км 9/5 540 м
[Cu med, cong Ac As Ci fib]
+25.2 +23.7 91 +34 +34 очень
душно
1016.4 995.4
21 12.06 ЮВ 3 10 км слаб. дождь 9/4 540 м
[Cu hum Ac As Ci fib]
+24.8 +23.3 91 +33 +33 очень
душно
1016.8 995.8 4
00 13.06 ЮВ 4 6000 м слаб. дождь 9/6 540 м
[Cu med, cong Ac As Ci fib]
+25.0 +24.1 95 +34 +35 очень
душно
1018.9 997.8 +24.2 3
03 13.06 ЮВ 5 10 км {дождь} 5/5 540 м
[Cu med, cong Ci fib]
+27.8 +23.7 78 +38 +42 очень
душно
1017.8 996.8 1
06 13.06 ЮВ 4 10 км 5/5 600 м
[Cu med, cong Ci fib]
+29.8 +22.8 66 +39 +43 очень
душно
1015.4 994.4
09 13.06 В 4 10 км 5/1 600 м
[Cu hum Ci fib]
+27.0 +23.1 79 +36 +36 очень
душно
1016.1 995.1
12 13.06 ЮВ 2 10 км 1/1 600 м
[Cu hum Ci fib]
+25.0 +23.6 92 +34 +34 очень
душно
1018.4 997.3 +30.0
15 13.06 В 3 10 км 1/1 600 м
[Cu hum Ci fib]
+23.8 +22.7 94 +31 +31 очень
душно
1018.2 997.1
18 13.06 ЮВ 3 10 км 1/1 600 м
[Cu hum Ci fib]
+23.4 +22.2 93 +32 +32 очень
душно
1017.4 996.3
21 13.06 В 2 10 км 1/1 600 м
[Cu hum Ci fib]
+22.6 +21.7 95 +30 +30 очень
душно
1017.2 996.2
00 14.06 ЮВ 4 10 км 3/1 600 м
[Cu hum Ci fib]
+26.0 +22.7 82 +34 +37 очень
душно
1018.7 997.6 +21.6 1
03 14.06 В 6 10 км 3/1 600 м
[Cu hum Ci fib]
+29.6 +20.5 58 +36 +42 очень
душно
1017.7 996.7
06 14.06 В 7 10 км 3/1 600 м
[Cu hum Ci fib]
+28.8 +20.6 61 +36 +38 очень
душно
1015.4 994.4
09 14.06 В 5 10 км 5/4 600 м
[Cu hum Ci fib]
+26.4 +21.9 76 +34 +34 очень
душно
1015.4 994.4
12 14.06 ЮВ 1 10 км 5/4 600 м
[Cu hum Ci fib]
+23.8 +24.6 100 +32 +32 очень
душно
1017.4 996.4 +30.0
15 14.06 В 2 10 км 5/4 600 м
[Cu hum Ci fib]
+22.4 +20.9 91 +29 +29 очень
душно
1018.6 997.5
18 14.06 С 39 10 км 5/4 600 м
[Cu hum Ci fib]
+21.0 +19.7 92 +24 +24 комфорт 1017.6 996.6
21 14.06 Ю 1 10 км 5/4 600 м
[Cu hum Ci fib]
+19.6 +18.5 93 +23 +23 комфорт 1017.7 996.7
00 15.06 ЮВ 2 10 км 5/4 600 м
[Cu hum Ci fib]
+24.8 +21.5 82 +32 +34 очень
душно
1019.3 998.3 +19.6
03 15.06 ЮВ 5 10 км 5/4 600 м
[Cu hum Ci fib]
+27.6 +21.3 69 +35 +40 очень
душно
1019.2 998.1
06 15.06 В 6 10 км 5/4 600 м
[Cu hum Ci fib]
+29.0 +20.2 59 +35 +38 очень
душно
1016.4 995.4
09 15.06 В 4 10 км 4/4 600 м
[Cu hum Ci fib]
+26.4 +21.3 74 +34 +34 очень
душно
1016.5 995.5
12 15.06 ЮВ 2 10 км 1/1 600 м
[Cu hum Ci fib]
+22.8 +20.6 87 +30 +30 очень
душно
1018.0 997.0 +30.0
18 15.06 ЮВ 2 10 км 1/1 600 м
[Cu hum Ci fib]
+21.0 +19.7 92 +27 +27 душно 1017.7 996.6
21 15.06 В 1 10 км 1/1 600 м
[Cu hum Ci fib]
+20.2 +19.8 98 +25 +25 комфорт 1017.8 996.8
00 16.06 ЮВ 2 10 км 3/3 600 м
[Cu hum Ci fib]
+24.6 +21.6 83 +31 +34 очень
душно
1019.5 998.5 +20.0

 

Местоположение метеостанции Роти (Индонезия): широта -10.73 долгота 123.07 высота над уровнем моря 1 м.

В архиве по умолчанию представлена погода на Роти за последнюю неделю. Архивные данные за месяц целиком и за предыдущие месяцы, начиная с января 2011 года, Вы можете получить, выбрав интересующий диапазон дат из раскрывающегося списка и нажав кнопку "Ввод!".


*Определитесь, кто Вы:
робот инопланетянин человек

Внимание! Время в таблицах - всемирное. Для получения местного времени необходимо прибавить поправку, которая равна 8 ч.

Смотрите также архив погоды в соседних городах и на ближайших метеорологических станциях:

Погода в Купанге (Индонезия) (90 км)
Погода в Сабу (Индонезия) (138 км)
Погода в Маумере (Индонезия) (250 км)
Погода в Ларантуке (Индонезия) (274 км)
Погода в Аэропорту Умбу Механг Кунда (Индонезия) (322 км)
Погода на Алоре (Индонезия) (324 км)
Погода в Рутенге (Индонезия) (370 км)
Погода на Острове Брауз (Западная Австралия, Австралия) (380 км)
Погода на Острове Троутон (Западная Австралия, Австралия) (474 км)
Погода в Трускотте (Западная Австралия, Австралия) (518 км)

Пояснения к столбцам:

Ветер - указаны скорость ветра в м/с - средняя за 10 мин, порывы в срок и между сроками (в фигурных скобках) и направление, откуда дует ветер: С - северный, СВ - северо-восточный, В - восточный, ЮВ - юго-восточный, Ю - южный, ЮЗ - юго-западный, З - западный, СЗ - северо-западный.
Видимость - горизонтальная дальность видимости в метрах или километрах. При видимости от 1 до 10 км при отсутствии осадков обычно наблюдается дымка, при ухудшении видимости до 1 км и менее - туман. В сухую погоду видимость может ухудшаться дымом, пылью или мглою.
Явления - указаны атмосферные явления, наблюдавшиеся в срок или в последний час перед сроком; фигурными скобками обозначены явления, наблюдавшиеся между сроками (за 1-3 часа до срока); квадратными скобками обозначены град или гололедные отложения с указанием их диаметра в мм.
Облачность - указаны через наклонную черту общая и нижняя облачность в баллах и высота нижней границы облаков в метрах; квадратными скобками обозначены формы облаков: Ci - перистые, Cs - перисто-слоистые, Cc - перисто-кучевые, Ac - высококучевые, As - высокослоистые, Sc - слоисто-кучевые, Ns - слоисто-дождевые, Cu - кучевые, Cb - кучево-дождевые. Подробнее классификацию облаков см. в Атласе облаков (PDF).
T - Температура воздуха - температура, измеренная на высоте 2 м над землей.
Td - Температура точки росы - температура, при понижении до которой содержащийся в воздухе водяной пар достигнет насыщения.
f - Относительная влажность воздуха - влажноcть воздуха, измеренная на высоте 2 м над землей.
Te - Эффективная температура - температура, которую ощущает одетый по сезону человек в тени. Характеристика душности погоды. При расчете учитывается влияние влажности воздуха и скорости ветра на теплоощущения человека.
Tes - Эффективная температура на солнце - температура, которую ощущает человек, с поправкой на солнечный нагрев. Характеристика знойности погоды. Зависит от высоты солнца над горизонтом, облачности и скорости ветра. Ночью, в пасмурную погоду, а также при ветре 12 м/с и более поправка равна нулю.
P - Атмосферное давление - приведенное к уровню моря атмосферное давление.
Po - Атмосферное давление - измеренное на уровне метеостанции атмосферное давление.
Tmin - Минимальная температура - минимум температуры воздуха на высоте 2 м над землей.
Tmax - Максимальная температура - максимум температуры воздуха на высоте 2 м над землей.
R - Количество осадков - Количество выпавших осадков за период времени, мм. При наведении курсора мыши на число - период времени, за который выпало указанное количество осадков.
R24 - Количество осадков - Количество выпавших осадков за 24 часа, мм.
S - Снежный покров - Высота снежного покрова, см. При наведении курсора мыши на число - состояние снежного покрова и степень покрытия местности в баллах.